Regional Weather Roundup
Issued by NWS

Home | Current Version | Previous Version | Text Only | Print | Product List | Glossary On
Versions: 1 2 3 4 5 6 7 8 9 10 11 12 13 14 15 16 17 18 19 20 21 22 23 24 25 26 27 28 29 30 31 32 33 34 35 36 37 38 39 40 41 42 43 44 45 46 47 48 49 50
000
ASUS43 KLMK 281702
RWRKY
KENTUCKY REGIONAL WEATHER ROUNDUP
NATIONAL WEATHER SERVICE LOUISVILLE KY
1200 PM EST FRI NOV 28 2014

NOTE "FAIR" INDICATES FEW OR NO CLOUDS BELOW 12,000 FEET
WITH NO SIGNIFICANT WEATHER AND/OR OBSTRUCTIONS TO VISIBILITY.

KYZ001>023-026-027-061>063-070>075-281800-
WESTERN AND SOUTH CENTRAL KENTUCKY

CITY           SKY/WX    TMP DP  RH WIND       PRES   REMARKS
PADUCAH        SUNNY     41  29  62 S10G18    30.31F
HENDERSON      SUNNY     37  27  65 SE10      30.32F WCI  30
OWENSBORO      SUNNY     36  26  67 S14       30.35F WCI  27
HOPKINSVILLE   SUNNY     39  24  56 S7        30.36F WCI  34
BOWLING GREEN  MOSUNNY   37  20  50 S8        30.38F WCI  31
GLASGOW        NOT AVBL
$$

KYZ024-025-028>034-038-045-046-053-281800-
NORTH CENTRAL KENTUCKY

CITY           SKY/WX    TMP DP  RH WIND       PRES   REMARKS
LOUISVILLE/SDF CLOUDY    34  22  61 S8        30.36F WCI  27
LOUISVILLE/LOU MOSUNNY   32  20  61 SE8       30.37F WCI  25
FORT KNOX      CLOUDY    32  23  69 S8        30.35F WCI  25
$$

KYZ035>037-039>044-047>052-055>060-089>105-281800-
NORTHEAST KENTUCKY

CITY           SKY/WX    TMP DP  RH WIND       PRES   REMARKS
LEXINGTON      CLOUDY    31  18  58 S9        30.36F WCI  23
COVINGTON      CLOUDY    31  15  52 S12       30.32F WCI  22
FRANKFORT      PTSUNNY   31  18  58 S10       30.36F WCI  22
$$

KYZ054-064>069-076>088-106>120-281800-
SOUTHEAST KENTUCKY

CITY           SKY/WX    TMP DP  RH WIND       PRES   REMARKS
JACKSON        SUNNY     32  17  54 S6        30.35F WCI  26
LONDON         SUNNY     32  18  56 VRB3      30.36F
SOMERSET       NOT AVBL
MIDDLESBORO    NOT AVBL
MONTICELLO     MOSUNNY   34  16  48 CALM      30.41F
$$




USA.gov is the U.S. government's official web portal to all federal, state and local government web resources and services.